Location: Malanoce
(44.2500°N, 7.4667°E)
Time: 22:49:00
(UTC+00:00)

NOAA 6 - Pass Details

Date: 17 November 2025
Orbit: 766 x 782 km, 98.6° (Epoch: 13 December)

Event Time Altitude Azimuth Distance (km) Brightness Sun altitude
Rises 17:51:16 0° 154° (SSE) 3,252 7.1 -19.6°
Reaches altitude 10° 17:53:36 10° 151° (SSE) 2,327 6.3 -20.0°
Maximum altitude 17:58:39 61° 72° (ENE) 884 4.0 -20.9°
Drops below altitude 10° 18:03:43 10° 353° (N) 2,334 6.5 -21.8°
Sets 18:06:03 0° 350° (N) 3,264 7.3 -22.2°
